FALCON HEAVY R/B

基本信息
目录编号:
68894
目录名称:
FALCON HEAVY R/B
国际标识:
2026-096B
轨道中心:
EARTH
物体状态:
在轨
发射日期:
2026-04-29 UTC
国别:
美国 (US)
轨道信息
数据来源: 国际轨道数据
星历时间: 2026-09-05T04:24:47+0800
半长轴: 34425.583km
偏心率: 0.1479587
轨道倾角: 2.466°
近地点辐角: 186.455°
升交点赤经: 277.539°
平近点角: 171.130°
近地点: 22953.881km
远地点: 33141.011km
周期: 1059.453分钟
每日圈数: 1.359192
详细信息
发射场:
AFETR
轨道高度:
MEO
数据来源:
AOE Integration Group
参考系:
TEME
时间系统:
UTC
历元类型:
SGP4
2D轨道图
3D轨道图
轨道高度分析图
轨道倾角分析图
轨道综合分析图
查看轨道综合分析图